Terug naar catalogus

STARLINK-5344

ActiefCommunicatieVLEO
NORAD 55494·PAYLOAD·🇺🇸 United States

Gelanceerd Feb 2, 2023 vanaf Cape Canaveral Space Force Station

Loading…

Volgende Passages (komende 24 uur)

TLE

VersSource: CelesTrak SupGP

Epoch: Sep 15, 2026, 02:35 UTC

1 55494C 23015AX  26258.10812500  .00022509  00000+0  81532-3 0  2585
2 55494  43.0038 350.0911 0001812 271.5335  72.7418 15.27564958    16

Volg STARLINK-5344 in realtime met AllMySat

Download on the App Store